| time (UTC) | temp F | wind direction | speed MPH | gust MPH | rain 1hr in | rain 24hr in | rain mn in | humidity % | barometer mb |
| 20260906072130 | 60 | 326 | 17.0 | 19.0 | 0.00 | 0.00 | 0.00 | 81 | 1010.5 |
| 20260906070457 | 59 | 328 | 16.0 | 17.0 | 0.00 | 0.00 | 0.00 | 84 | 1010.2 |
| 20260906064458 | 59 | 332 | 17.0 | 18.0 | 0.00 | 0.00 | 0.00 | 82 | 1010.0 |
| 20260905200459 | 58 | 10 | 19.0 | 23.0 | 0.00 | 0.00 | 0.00 | 76 | 1003.7 |
| 20260905190455 | 58 | 16 | 23.0 | 27.0 | 0.00 | 0.00 | 0.00 | 68 | 1003.1 |
| 20260905180454 | 59 | 20 | 24.0 | 28.0 | 0.00 | 0.00 | 0.00 | 75 | 1002.1 |
| 20260905174126 | 59 | 19 | 25.0 | 28.0 | 0.00 | 0.00 | 0.00 | 73 | 1001.8 |
| 20260905170456 | 59 | 16 | 19.0 | 21.0 | 0.00 | 0.00 | 0.00 | 84 | 1001.4 |
| 20260905164458 | 59 | 22 | 17.0 | 19.0 | 0.00 | 0.00 | 0.00 | 83 | 1001.2 |
| 20260905162128 | 58 | 356 | 17.0 | 25.0 | 0.00 | 0.00 | 0.00 | 84 | 1000.8 |
| 20260905150456 | 59 | 309 | 17.0 | 19.0 | 0.00 | 0.00 | 0.00 | 75 | 1000.1 |
| 20260905144456 | 59 | 305 | 17.0 | 19.0 | 0.00 | 0.00 | 0.00 | 74 | 1000.0 |
| 20260905142456 | 59 | 303 | 18.0 | 21.0 | 0.00 | 0.00 | 0.00 | 81 | 999.9 |
| 20260905134455 | 59 | 314 | 17.0 | 19.0 | 0.00 | 0.00 | 0.00 | 79 | 999.5 |
| 20260905130500 | 59 | 314 | 17.0 | 19.0 | 0.00 | 0.00 | 0.00 | 81 | 999.4 |
| 20260905124455 | 59 | 312 | 17.0 | 20.0 | 0.00 | 0.00 | 0.00 | 80 | 999.2 |
| 20260905122127 | 59 | 322 | 16.0 | 18.0 | 0.00 | 0.00 | 0.00 | 78 | 999.1 |
| 20260905114456 | 59 | 324 | 16.0 | 18.0 | 0.00 | 0.00 | 0.00 | 71 | 998.8 |
| 20260905112128 | 59 | 325 | 15.0 | 19.0 | 0.00 | 0.00 | 0.00 | 70 | 998.8 |
| 20260905102456 | 59 | 333 | 13.0 | 15.0 | 0.00 | 0.00 | 0.00 | 71 | 998.1 |
| 20260905100456 | 59 | 339 | 13.0 | 15.0 | 0.00 | 0.00 | 0.00 | 70 | 997.9 |
| 20260905094455 | 59 | 349 | 14.0 | 16.0 | 0.00 | 0.00 | 0.00 | 70 | 997.7 |
| 20260905092456 | 59 | 352 | 14.0 | 17.0 | 0.00 | 0.00 | 0.00 | 73 | 997.5 |
| 20260905090456 | 59 | 9 | 12.0 | 15.0 | 0.00 | 0.00 | 0.00 | 69 | 997.3 |
| 20260905084456 | 59 | 5 | 12.0 | 13.0 | 0.00 | 0.00 | 0.00 | 68 | 997.2 |
| 20260905082128 | 57 | 357 | 6.0 | 10.0 | 0.00 | 0.00 | 0.00 | 78 | 996.8 |
| 20260905080453 | 58 | 348 | 6.0 | 7.0 | 0.00 | 0.00 | 0.00 | 75 | 996.9 |
| 20260905074125 | 57 | 1 | 11.0 | 14.0 | 0.00 | 0.00 | 0.00 | 78 | 996.7 |
| 20260905072453 | 57 | 28 | 17.0 | 19.0 | 0.00 | 0.00 | 0.00 | 76 | 996.5 |